Date String (YYYY-MM-DD hh:mm:ss) UTC,Instrument flags,Ambient pressure (hPa),Sample flow (lpm),Bypass flow (lpm),Sample temperature (°C),Ambient temperature (°C),ASC tube jacket temperature (°C),LED temperature (°C),Box temperature (°C),Sample RH (%),Span deviation,Mass concentration (μg/m³),Mass concentration (μg/m³),Mass concentration (μg/m³)
DateTimeUTC,F1_M11,P_M11,Q1_M11,Q2_M11,T1_M11,T2_M11,T3_M11,T4_M11,T5_M11,U1_M11,ZSPAN_M11,X0_M11,X2_M11,X1_M11
2022-04-06 10:00:00,,0824.7,5.00,0.00,22.2,23.0,00.0,31.2,24.2,04.9,0000.0,0006.93,0001.67,0000.65
2022-04-06 10:01:00,,0824.6,4.99,0.00,22.4,23.4,00.0,31.2,24.4,04.8,0000.0,0007.09,0001.69,0000.66
2022-04-06 10:02:00,,0824.7,5.01,0.00,22.4,23.0,00.0,31.2,24.3,04.8,0000.0,0006.62,0001.68,0000.66
2022-04-06 10:03:00,,0824.8,4.99,0.00,22.3,22.6,00.0,31.2,24.1,04.9,0000.0,0006.39,0001.60,0000.65
2022-04-06 10:04:00,,0824.7,5.01,0.00,22.3,22.2,00.0,31.3,24.0,05.0,0000.0,0005.79,0001.59,0000.65
2022-04-06 10:05:00,,0824.7,5.00,0.00,22.2,22.0,00.0,31.3,23.9,05.1,0000.0,0005.01,0001.52,0000.63
2022-04-06 10:06:00,,0824.8,4.99,0.00,22.2,21.7,00.0,31.2,23.8,05.1,0000.0,0004.95,0001.48,0000.61
2022-04-06 10:07:00,,0824.8,5.00,0.00,22.1,21.5,00.0,31.2,23.7,05.1,0000.0,0004.91,0001.47,0000.61
2022-04-06 10:08:00,,0824.7,5.01,0.00,22.1,21.3,00.0,31.2,23.6,05.0,0000.0,0004.70,0001.40,0000.62
2022-04-06 10:09:00,,0824.7,5.00,0.00,22.0,21.2,00.0,31.2,23.6,05.0,0000.0,0004.83,0001.42,0000.61
2022-04-06 10:10:00,,0824.6,5.00,0.00,22.0,21.1,00.0,31.2,23.6,05.1,0000.0,0004.92,0001.42,0000.61
2022-04-06 10:11:00,,0824.6,5.00,0.00,21.9,20.9,00.0,31.1,23.5,05.1,0000.0,0004.96,0001.42,0000.61
2022-04-06 10:12:00,,0824.5,4.99,0.00,21.9,20.8,00.0,31.1,23.4,05.1,0000.0,0004.89,0001.46,0000.59
2022-04-06 10:13:00,,0824.7,4.99,0.00,21.8,20.7,00.0,31.1,23.3,05.2,0000.0,0005.01,0001.44,0000.58
2022-04-06 10:14:00,,0824.8,4.99,0.00,21.7,20.7,00.0,31.0,23.2,05.2,0000.0,0005.06,0001.44,0000.59
2022-04-06 10:15:00,,0824.8,5.01,0.00,21.8,21.4,00.0,31.1,23.5,05.2,0000.0,0004.88,0001.40,0000.59
2022-04-06 10:16:00,,0824.9,5.00,0.00,21.9,22.4,00.0,31.1,23.8,05.3,0000.0,0005.02,0001.42,0000.59
2022-04-06 10:17:00,,0825.0,4.99,0.00,22.1,23.2,00.0,31.1,24.1,05.4,0000.0,0005.98,0001.47,0000.60
2022-04-06 10:18:00,,0825.1,5.01,0.00,22.2,23.1,00.0,31.1,24.2,05.5,0000.0,0007.37,0001.51,0000.62
2022-04-06 10:19:00,,0825.0,5.00,0.00,22.2,22.8,00.0,31.1,24.1,05.5,0000.0,0007.63,0001.57,0000.62
2022-04-06 10:20:00,,0825.0,4.99,0.00,22.2,22.4,00.0,31.2,24.0,05.5,0000.0,0007.62,0001.58,0000.62
2022-04-06 10:21:00,,0825.1,4.99,0.00,22.2,22.1,00.0,31.2,23.9,05.3,0000.0,0006.99,0001.55,0000.61
2022-04-06 10:22:00,,0825.1,5.01,0.00,22.1,21.9,00.0,31.2,23.8,05.4,0000.0,0006.60,0001.59,0000.61
2022-04-06 10:23:00,,0825.1,5.00,0.00,22.1,21.7,00.0,31.2,23.8,05.4,0000.0,0006.62,0001.58,0000.62
2022-04-06 10:24:00,,0825.1,4.99,0.00,22.1,21.5,00.0,31.1,23.7,05.4,0000.0,0006.48,0001.56,0000.62
2022-04-06 10:25:00,,0825.1,5.00,0.00,22.1,21.4,00.0,31.1,23.7,05.5,0000.0,0006.62,0001.60,0000.61
2022-04-06 10:26:00,,0825.0,5.00,0.00,22.0,21.3,00.0,31.1,23.7,05.5,0000.0,0006.55,0001.61,0000.60
2022-04-06 10:27:00,,0825.0,4.99,0.00,22.0,21.3,00.0,31.1,23.7,05.5,0000.0,0006.42,0001.61,0000.60
2022-04-06 10:28:00,,0825.0,5.00,0.00,22.0,21.2,00.0,31.1,23.6,05.5,0000.0,0005.77,0001.61,0000.60
2022-04-06 10:29:00,,0825.0,5.00,0.00,22.0,21.1,00.0,31.1,23.6,05.5,0000.0,0004.40,0001.57,0000.59
2022-04-06 10:30:00,,0825.1,5.00,0.00,22.0,21.1,00.0,31.1,23.6,05.5,0000.0,0003.91,0001.50,0000.58
2022-04-06 10:31:00,,0825.1,5.00,0.00,21.9,21.1,00.0,31.1,23.6,05.6,0000.0,0003.91,0001.42,0000.58
2022-04-06 10:32:00,,0825.1,5.00,0.00,21.9,21.0,00.0,31.0,23.5,05.6,0000.0,0003.98,0001.44,0000.59
2022-04-06 10:33:00,,0825.1,5.00,0.00,21.9,21.0,00.0,31.0,23.5,05.5,0000.0,0004.25,0001.42,0000.59
2022-04-06 10:34:00,,0825.2,5.00,0.00,22.0,21.6,00.0,31.0,23.7,05.5,0000.0,0004.25,0001.43,0000.59
2022-04-06 10:35:00,,0825.2,5.00,0.00,22.1,22.6,00.0,31.1,24.0,05.5,0000.0,0004.38,0001.52,0000.59
2022-04-06 10:36:00,,0825.1,4.99,0.00,22.3,23.2,00.0,31.1,24.3,05.4,0000.0,0004.24,0001.53,0000.59
2022-04-06 10:37:00,,0825.1,5.01,0.00,22.3,23.0,00.0,31.2,24.3,05.2,0000.0,0004.29,0001.57,0000.61
2022-04-06 10:38:00,,0825.1,5.00,0.00,22.3,22.7,00.0,31.2,24.2,05.4,0000.0,0004.44,0001.58,0000.62
2022-04-06 10:39:00,,0825.1,4.99,0.00,22.3,22.4,00.0,31.2,24.1,05.4,0000.0,0004.51,0001.59,0000.61
2022-04-06 10:40:00,,0825.1,5.01,0.00,22.3,22.1,00.0,31.2,24.0,05.4,0000.0,0004.36,0001.62,0000.61
2022-04-06 10:41:00,,0825.2,4.99,0.00,22.3,21.9,00.0,31.2,24.0,05.4,0000.0,0004.59,0001.70,0000.62
2022-04-06 10:42:00,,0825.1,5.01,0.00,22.2,21.7,00.0,31.2,23.9,05.4,0000.0,0004.84,0001.73,0000.62
2022-04-06 10:43:00,,0825.2,5.01,0.00,22.2,21.6,00.0,31.2,23.9,05.3,0000.0,0005.06,0001.77,0000.62
2022-04-06 10:44:00,,0825.2,5.00,0.00,22.2,21.5,00.0,31.2,23.8,05.2,0000.0,0004.48,0001.76,0000.61
2022-04-06 10:45:00,,0825.2,4.98,0.00,22.1,21.4,00.0,31.2,23.7,05.4,0000.0,0004.74,0001.73,0000.61
2022-04-06 10:46:00,,0825.2,5.01,0.00,22.1,21.3,00.0,31.2,23.7,05.4,0000.0,0004.75,0001.66,0000.62
2022-04-06 10:47:00,,0825.2,5.01,0.00,22.1,21.2,00.0,31.2,23.7,05.4,0000.0,0004.84,0001.69,0000.63
2022-04-06 10:48:00,,0825.2,5.00,0.00,22.0,21.2,00.0,31.1,23.7,05.3,0000.0,0004.70,0001.62,0000.62
2022-04-06 10:49:00,,0825.1,5.00,0.00,22.0,21.1,00.0,31.1,23.6,05.2,0000.0,0004.59,0001.57,0000.60
2022-04-06 10:50:00,,0825.1,5.00,0.00,22.0,21.0,00.0,31.1,23.5,05.2,0000.0,0004.45,0001.53,0000.61
2022-04-06 10:51:00,,0825.1,5.00,0.00,21.9,21.0,00.0,31.1,23.5,05.2,0000.0,0004.98,0001.52,0000.61
2022-04-06 10:52:00,,0825.1,5.01,0.00,21.9,21.4,00.0,31.1,23.6,05.2,0000.0,0006.17,0001.48,0000.60
2022-04-06 10:53:00,,0825.2,5.00,0.00,22.1,22.3,00.0,31.1,23.9,05.2,0000.0,0005.85,0001.42,0000.59
2022-04-06 10:54:00,,0825.2,5.01,0.00,22.2,23.1,00.0,31.2,24.2,05.2,0000.0,0005.64,0001.38,0000.58
2022-04-06 10:55:00,,0825.0,4.98,0.00,22.3,22.9,00.0,31.2,24.2,05.1,0000.0,0006.63,0001.33,0000.58
2022-04-06 10:56:00,,0825.1,5.00,0.00,22.3,22.5,00.0,31.2,24.1,05.1,0000.0,0007.00,0001.30,0000.57
2022-04-06 10:57:00,,0825.1,5.01,0.00,22.2,22.2,00.0,31.2,23.9,05.2,0000.0,0006.79,0001.27,0000.57
2022-04-06 10:58:00,,0825.2,4.99,0.00,22.2,21.9,00.0,31.2,23.8,05.3,0000.0,0006.73,0001.25,0000.57
2022-04-06 10:59:00,,0825.3,5.00,0.00,22.1,21.7,00.0,31.2,23.8,05.3,0000.0,0006.85,0001.26,0000.57
